Regional Weather Roundup
Issued by NWS Jackson, KY

Home | Current Version | Previous Version | Text Only | Print | Product List | Glossary Off
Versions: 1 2 3 4 5 6 7 8 9 10 11 12 13 14 15 16 17 18 19 20 21 22 23 24 25 26 27

000
ASUS43 KJKL 200810
RWRJKL

EAST KENTUCKY HOURLY WEATHER ROUNDUP
NATIONAL WEATHER SERVICE JACKSON KY
300 AM EST TUE FEB 20 2018

NOTE: "FAIR" INDICATES FEW OR NO CLOUDS BELOW 12,000 FEET WITH
NO SIGNIFICANT WEATHER AND/OR OBSTRUCTIONS TO VISIBILITY.

* THESE REPORTS ARE NOT UNDER NWS QUALITY CONTROL AND MAY NOT
  REPORT WEATHER SUCH AS PRECIPITATION AND FOG.

KYZ079-080-083-085-087-088-110-112-115-119-120-200900
...EASTERN KENTUCKY...

CITY           SKY/WX    TMP DP  RH WIND       PRES   REMARKS
JACKSON        CLOUDY    64  52  64 S7        30.22S
LONDON           N/A     63  53  70 S7        30.24R
SOMERSET*        N/A     63  54  72 MISG      30.23S
WILLIAMSBURG*    N/A     63  55  77 S9        30.24F
MIDDLESBORO*     N/A     55  54  97 CALM      30.28S
HARLAN APT*      N/A     64  52  63 CALM      30.27F
PIKE CO APT*     N/A     62  51  69 S8        30.25S
BIG SANDY APT* PTSUNNY   63  52  67 S9        30.23F
MOREHEAD APT*  PTSUNNY   64  54  68 S9G17     30.19F
ASHLAND*         N/A     61  53  75 CALM      30.18F
$$

KYZ035-036-041-042-044-050-067-078-099-200900
...CENTRAL KENTUCKY...

CITY           SKY/WX    TMP DP  RH WIND       PRES   REMARKS
MT STERLING*     N/A     61  54  77 SW12G17   30.19S
FLEMING/MASON*   N/A     60  55  83 S9        30.17S
DANVILLE*        N/A     61  54  77 S12       30.19S
LEXINGTON      MOCLDY    64  55  72 S15       30.16R
FRANKFORT        N/A     66  54  65 S14G23    30.13R
LOUISVILLE     CLOUDY    69  56  62 S16G24    30.10S
LEBANON*         N/A     64  55  72 S17G28    30.15S
GLASGOW*         N/A     64  56  75 S9        30.17R
BOWLING GREEN    N/A     67  56  67 S16       30.14S
$$

KYZ091>093-OHZ055-061-077-WVZ005-015-034-035-042-200900
...SOUTHERN OHIO/WEST VIRGINIA...

CITY           SKY/WX    TMP DP  RH WIND       PRES   REMARKS
COVINGTON      MOCLDY    62  57  83 S15       30.10S
COLUMBUS       MOCLDY    61  54  77 S8        30.12R
DAYTON         MOCLDY    61  57  87 S16       30.08S
WILMINGTON       N/A     60  56  86 S14       30.12R
HUNTINGTON       N/A     64  51  62 S9        30.19S
CHARLESTON       N/A     66  52  60 S14       30.21S
BECKLEY        MOCLDY    56  49  77 SE12      30.31S
BLUEFIELD        N/A     54  47  77 MISG      30.35S
LOGAN CO APT*    N/A     64  52  63 VRB7G15   30.26S
$$

VAZ002-007-008-TNZ017-027-036-066-071-200900
...SOUTHWEST VIRGINIA/EAST TENNESSEE...

CITY           SKY/WX    TMP DP  RH WIND       PRES   REMARKS
WISE*            N/A     59  52  77 S12       30.32F
JONESVILLE*      N/A     48  48 100 CALM      30.31S
ABINGDON*        N/A     54  50  86 CALM      30.33S
BRISTOL          N/A     53  51  93 CALM      30.31S
MORRISTOWN*    SUNNY     55  52  88 CALM      30.28
SEVIERVILLE*   SUNNY     52  50  93 E3        30.27S
KNOXVILLE        N/A     59  56  89 W7        30.27R
LAFOLLETTE*    SUNNY     68  55  64 SW17G30   30.29F
OAK RIDGE        N/A     56  56 100 CALM      30.29S
CROSSVILLE       N/A     60  55  83 VRB6      30.29R
NASHVILLE        N/A     68  56  65 S16       30.17S
$$

...KEY TO REMARKS...
VSB - VISIBILITY IN MILES
WCI - WIND CHILL INDEX
HX  - HEAT INDEX

$$




USA.gov is the U.S. government's official web portal to all federal, state and local government web resources and services.